Location: Kelshall
(52.0000°N, 0.0500°W)
Time: 21:03:01
(UTC+00:00)

ATLAS 2AS CENTAUR R/B - Pass Details

Date: 21 January 2021
Orbit: 947 x 1265 km, 63.7° (Epoch: 13 February)

Event Time Altitude Azimuth Distance (km) Brightness Sun altitude
Rises 21:09:17 0° 299° (WNW) 4,204 6.6 -42.2°
Reaches altitude 10° 21:12:25 10° 308° (NW) 3,211 5.8 -42.6°
Enters shadow 21:17:00 30° 337° (NNW) 2,014 4.3 -43.2°
